Weather History for Faribault, MN

Change the Weather History Date:

Sunday, December 29, 2013

  Actual Average Record
Temperature  
Mean Temperature 8 °F -  
Max Temperature 26 °F 24 °F 55 °F (1999)
Min Temperature -11 °F 6 °F -18 °F (1983)
Degree Days  
Heating Degree Days 58    
Moisture  
Dew Point -9 °F    
Average Humidity 57    
Maximum Humidity 74    
Minimum Humidity 39    
Precipitation  
Precipitation 0.00 in - - ()
Sea Level Pressure  
Sea Level Pressure 30.21 in    
Wind  
Wind Speed 14 mph (NW)    
Max Wind Speed 23 mph    
Max Gust Speed 31 mph    
Visibility 10 miles    
Events      
Averages and records for this station are not official NWS values.
T = Trace of Precipitation, MM = Missing Value Source: NWS Daily Summary

Daily Weather History Graph

Daily Weather History Graph

Search for Another Location

Airport:

Trip Planner

Search our weather history database for the weather conditions in past years. The results will help you decide how hot, cold, wet, or windy it might be!

Date:

Astronomy

Dec. 29, 2013 Rise Set
Actual Time 7:48 AM CST 4:42 PM CST
Civil Twilight 7:15 AM CST 5:15 PM CST
Nautical Twilight 6:38 AM CST 5:52 PM CST
Astronomical Twilight 6:03 AM CST 6:27 PM CST
Moon 4:29 AM CST (12/29) 2:23 PM CST (12/29)
Length of Visible Light 9h 59m
Length of Day
8h 53m
Waning Crescent, 11% of the Moon is Illuminated
Dec 29
Waning Crescent
Jan 1
New
Jan 7
First Quarter
Jan 15
Full
Jan 23
Last Quarter

Hourly Weather History & Observations

Time (CST) Temp. Windchill Dew Point Humidity Pressure Visibility Wind Dir Wind Speed Gust Speed Precip Events Conditions
12:14 AM 26.6 °F 13.8 °F 19.4 °F 74% 29.95 in 7.0 mi NW 17.3 mph 27.6 mph N/A   Overcast
12:34 AM 24.8 °F 12.4 °F 17.6 °F 74% 29.96 in 10.0 mi NW 15.0 mph 28.8 mph N/A   Overcast
12:54 AM 23.0 °F 8.7 °F 15.8 °F 74% 29.98 in 10.0 mi NW 18.4 mph 29.9 mph N/A   Overcast
1:14 AM 21.2 °F 6.0 °F 14.0 °F 74% 30.00 in 10.0 mi NNW 19.6 mph 25.3 mph N/A   Overcast
1:34 AM 19.4 °F 3.6 °F 10.4 °F 68% 30.02 in 10.0 mi NW 19.6 mph 31.1 mph N/A   Overcast
1:54 AM 19.4 °F 4.1 °F 10.4 °F 68% 30.03 in 10.0 mi NNW 18.4 mph 27.6 mph N/A   Overcast
2:14 AM 19.4 °F 5.5 °F 10.4 °F 68% 30.05 in 10.0 mi NW 15.0 mph 24.2 mph N/A   Overcast
2:34 AM 17.6 °F 0.1 °F 8.6 °F 68% 30.06 in 10.0 mi NNW 23.0 mph 28.8 mph N/A   Overcast
2:54 AM 17.6 °F 1.7 °F 8.6 °F 68% 30.07 in 10.0 mi NNW 18.4 mph 25.3 mph N/A   Overcast
3:14 AM 17.6 °F 1.3 °F 6.8 °F 63% 30.07 in 10.0 mi NNW 19.6 mph 25.3 mph N/A   Overcast
3:34 AM 15.8 °F 1.4 °F 6.8 °F 68% 30.08 in 10.0 mi NNW 13.8 mph 19.6 mph N/A   Overcast
3:54 AM 15.8 °F -0.2 °F 5.0 °F 62% 30.08 in 10.0 mi NNW 17.3 mph 27.6 mph N/A   Overcast
4:14 AM 15.8 °F -0.6 °F 3.2 °F 58% 30.09 in 10.0 mi NW 18.4 mph 23.0 mph N/A   Overcast
4:34 AM 14.0 °F -2.5 °F 3.2 °F 62% 30.10 in 10.0 mi NW 17.3 mph 25.3 mph N/A   Overcast
4:54 AM 12.2 °F -3.7 °F 3.2 °F 67% 30.11 in 10.0 mi NW 15.0 mph 20.7 mph N/A   Overcast
5:14 AM 12.2 °F -2.5 °F 1.4 °F 62% 30.13 in 10.0 mi NW 12.7 mph 24.2 mph N/A   Overcast
5:34 AM 10.4 °F -6.0 °F 1.4 °F 67% 30.14 in 10.0 mi NW 15.0 mph 21.9 mph N/A   Overcast
5:54 AM 10.4 °F -7.2 °F -0.4 °F 62% 30.16 in 10.0 mi NW 17.3 mph 26.5 mph N/A   Overcast
6:14 AM 8.6 °F -8.3 °F -0.4 °F 67% 30.17 in 10.0 mi NW 15.0 mph 25.3 mph N/A   Overcast
6:34 AM 6.8 °F -11.8 °F -2.2 °F 67% 30.18 in 10.0 mi NW 17.3 mph 24.2 mph N/A   Overcast
6:54 AM 6.8 °F -11.8 °F -4.0 °F 61% 30.19 in 10.0 mi NW 17.3 mph 27.6 mph N/A   Overcast
7:14 AM 6.8 °F -11.8 °F -4.0 °F 61% 30.21 in 10.0 mi NW 17.3 mph 25.3 mph N/A   Overcast
7:34 AM 5.0 °F -15.7 °F -5.8 °F 61% 30.22 in 10.0 mi NW 20.7 mph 26.5 mph N/A   Overcast
7:54 AM 3.2 °F -17.1 °F -7.6 °F 61% 30.22 in 10.0 mi NNW 18.4 mph 26.5 mph N/A   Overcast
8:14 AM 3.2 °F -15.9 °F -7.6 °F 61% 30.23 in 10.0 mi NW 16.1 mph - N/A   Overcast
8:34 AM 1.4 °F -15.3 °F -9.4 °F 61% 30.23 in 10.0 mi NW 11.5 mph - N/A   Scattered Clouds
8:54 AM 1.4 °F -16.9 °F -9.4 °F 61% 30.24 in 10.0 mi NNW 13.8 mph 18.4 mph N/A   Clear
9:13 AM 1.4 °F -16.9 °F -9.4 °F 61% 30.25 in 10.0 mi NW 13.8 mph 20.7 mph N/A   Clear
9:34 AM 1.4 °F -16.9 °F -9.4 °F 61% 30.25 in 10.0 mi WNW 13.8 mph 17.3 mph N/A   Clear
9:54 AM 1.4 °F -17.6 °F -11.2 °F 56% 30.26 in 10.0 mi NW 15.0 mph - N/A   Clear
10:14 AM 1.4 °F -16.9 °F -13.0 °F 51% 30.27 in 10.0 mi NW 13.8 mph 21.9 mph N/A   Clear
10:34 AM 1.4 °F -16.9 °F -13.0 °F 51% 30.27 in 10.0 mi NNW 13.8 mph 20.7 mph N/A   Clear
10:54 AM 1.4 °F -18.2 °F -14.8 °F 47% 30.27 in 10.0 mi NW 16.1 mph 21.9 mph N/A   Clear
11:14 AM 1.4 °F -15.3 °F -14.8 °F 47% 30.28 in 10.0 mi NW 11.5 mph - N/A   Clear
11:34 AM 1.4 °F -16.9 °F -14.8 °F 47% 30.27 in 10.0 mi NW 13.8 mph - N/A   Clear
11:54 AM 1.4 °F -16.9 °F -14.8 °F 47% 30.27 in 10.0 mi NW 13.8 mph 17.3 mph N/A   Clear
12:13 PM 3.2 °F -14.6 °F -14.8 °F 43% 30.26 in 10.0 mi WNW 13.8 mph 19.6 mph N/A   Scattered Clouds
12:34 PM 3.2 °F -15.3 °F -16.6 °F 39% 30.26 in 10.0 mi NW 15.0 mph 18.4 mph N/A   Scattered Clouds
12:54 PM 3.2 °F -13.1 °F -16.6 °F 39% 30.25 in 10.0 mi WNW 11.5 mph - N/A   Scattered Clouds
1:13 PM 3.2 °F -13.9 °F -14.8 °F 43% 30.25 in 10.0 mi WNW 12.7 mph - N/A   Scattered Clouds
1:34 PM 1.4 °F -15.3 °F -14.8 °F 47% 30.26 in 10.0 mi NW 11.5 mph 18.4 mph N/A   Clear
1:54 PM 1.4 °F -14.5 °F -14.8 °F 47% 30.25 in 10.0 mi WNW 10.4 mph 18.4 mph N/A   Clear
2:14 PM 1.4 °F -16.1 °F -16.6 °F 43% 30.25 in 10.0 mi WNW 12.7 mph 17.3 mph N/A   Clear
2:34 PM 1.4 °F -15.3 °F -16.6 °F 43% 30.25 in 10.0 mi WNW 11.5 mph - N/A   Clear
2:54 PM 1.4 °F -16.1 °F -16.6 °F 43% 30.25 in 10.0 mi WNW 12.7 mph 17.3 mph N/A   Clear
3:14 PM 1.4 °F -16.1 °F -16.6 °F 43% 30.26 in 10.0 mi West 12.7 mph 18.4 mph N/A   Clear
3:34 PM -0.4 °F -18.4 °F -18.4 °F 43% 30.26 in 10.0 mi WNW 12.7 mph 18.4 mph N/A   Clear
3:54 PM -0.4 °F -19.2 °F -16.6 °F 46% 30.27 in 10.0 mi West 13.8 mph - N/A   Clear
4:14 PM -0.4 °F -16.7 °F -18.4 °F 43% 30.27 in 10.0 mi WNW 10.4 mph - N/A   Clear
4:34 PM -2.2 °F -19.9 °F -18.4 °F 46% 30.27 in 10.0 mi WNW 11.5 mph - N/A   Clear
4:54 PM -2.2 °F -18.0 °F -18.4 °F 46% 30.27 in 10.0 mi WNW 9.2 mph - N/A   Clear
5:14 PM -2.2 °F -15.6 °F -18.4 °F 46% 30.26 in 10.0 mi West 6.9 mph - N/A   Clear
5:34 PM -4.0 °F -14.6 °F -18.4 °F 50% 30.26 in 10.0 mi WNW 4.6 mph - N/A   Clear
5:54 PM -4.0 °F -12.4 °F -18.4 °F 50% 30.26 in 10.0 mi West 3.5 mph - N/A   Clear
6:14 PM -5.8 °F -16.7 °F -18.4 °F 55% 30.26 in 10.0 mi West 4.6 mph - N/A   Clear
6:34 PM -5.8 °F -16.7 °F -18.4 °F 55% 30.26 in 10.0 mi WNW 4.6 mph - N/A   Clear
6:54 PM -5.8 °F -21.2 °F -18.4 °F 55% 30.26 in 10.0 mi WNW 8.1 mph - N/A   Clear
7:14 PM -5.8 °F -18.4 °F -20.2 °F 50% 30.27 in 10.0 mi WNW 5.8 mph - N/A   Clear
7:34 PM -5.8 °F -16.7 °F -20.2 °F 50% 30.26 in 10.0 mi WNW 4.6 mph - N/A   Clear
7:54 PM -5.8 °F -16.7 °F -20.2 °F 50% 30.26 in 10.0 mi West 4.6 mph - N/A   Clear
8:14 PM -7.6 °F -18.8 °F -20.2 °F 54% 30.26 in 10.0 mi West 4.6 mph - N/A   Clear
8:34 PM -7.6 °F -16.5 °F -20.2 °F 54% 30.27 in 10.0 mi West 3.5 mph - N/A   Clear
8:54 PM -7.6 °F - -20.2 °F 54% 30.27 in 10.0 mi Calm Calm - N/A   Clear
9:14 PM -7.6 °F - -18.4 °F 59% 30.27 in 10.0 mi Calm Calm - N/A   Clear
9:34 PM -7.6 °F - -18.4 °F 59% 30.27 in 10.0 mi Calm Calm - N/A   Clear
9:54 PM -7.6 °F - -18.4 °F 59% 30.27 in 10.0 mi Calm Calm - N/A   Clear
10:14 PM -9.4 °F - -18.4 °F 65% 30.26 in 10.0 mi Calm Calm - N/A   Clear
10:34 PM -9.4 °F - -18.4 °F 65% 30.26 in 10.0 mi Calm Calm - N/A   Clear
10:54 PM -9.4 °F - -18.4 °F 65% 30.27 in 10.0 mi Calm Calm - N/A   Clear
11:14 PM -9.4 °F - -18.4 °F 65% 30.27 in 10.0 mi Calm Calm - N/A   Clear
11:34 PM -11.2 °F -20.6 °F -20.2 °F 64% 30.28 in 10.0 mi SW 3.5 mph - N/A   Clear
11:54 PM -9.4 °F - -20.2 °F 59% 30.27 in 10.0 mi Calm Calm - N/A   Clear